Tracking 27126 objects as of 30-Mar-2023
HD Live streaming from Space Station
objects crossing your sky now

STARLINK-3322

Track STARLINK-3322 now!
10-day predictions
STARLINK-3322 is classified as:


NORAD ID: 50838
Int'l Code: 2022-001AM
Perigee: 522.0 km
Apogee: 523.6 km
Inclination: 53.2 °
Period: 94.9 minutes
Semi major axis: 6893 km
RCS: Unknown
Launch date: January 6, 2022
Source: United States (US)
Launch site: AIR FORCE EASTERN TEST RANGE (AFETR)
Your satellite tracking list
Your tracking list is empty




NASA's NSSDC Master Catalog

Two Line Element Set (TLE):
1 50838U 22001AM  23088.85045173  .00094490  00000-0  47111-2 0  9995
2 50838  53.2170 326.4985 0001158 242.3806 117.7072 15.16760289 67880
Source of the keplerian elements: AFSPC